| time (UTC) | temp C | wind direction | speed KPH | gust KPH | rain 1hr cm | rain 24hr cm | rain mn cm | humidity % | barometer mb |
| 20260507120046 | 10 | 0 | 0.0 | 0.0 | 0.00 | 0.25 | 0.00 | 97 | 1015.2 |
| 20260507114604 | 10 | 0 | 0.0 | 4.8 | 0.00 | 0.41 | 0.00 | 97 | 1015.0 |
| 20260507113052 | 10 | 0 | 0.0 | 0.0 | 0.00 | 0.41 | 0.00 | 97 | 1014.9 |
| 20260507111545 | 10 | 0 | 0.0 | 3.2 | 0.00 | 0.41 | 0.00 | 97 | 1014.5 |
| 20260507110046 | 10 | 0 | 0.0 | 1.6 | 0.00 | 0.41 | 0.00 | 97 | 1014.1 |
| 20260507104551 | 10 | 19 | 0.0 | 1.6 | 0.00 | 0.58 | 0.00 | 98 | 1013.9 |
| 20260507103044 | 10 | 0 | 0.0 | 0.0 | 0.00 | 0.58 | 0.00 | 98 | 1013.9 |
| 20260507101550 | 10 | 0 | 0.0 | 3.2 | 0.00 | 0.58 | 0.00 | 98 | 1014.0 |
| 20260507100048 | 11 | 0 | 0.0 | 0.0 | 0.00 | 0.58 | 0.00 | 99 | 1013.9 |
| 20260507094546 | 11 | 0 | 0.0 | 1.6 | 0.00 | 0.66 | 0.00 | 99 | 1014.0 |
| 20260507093047 | 11 | 0 | 0.0 | 0.0 | 0.00 | 0.66 | 0.00 | 99 | 1013.9 |
| 20260507091547 | 11 | 0 | 0.0 | 1.6 | 0.00 | 0.66 | 0.00 | 99 | 1014.1 |
| 20260507090047 | 11 | 0 | 0.0 | 1.6 | 0.00 | 0.66 | 0.00 | 99 | 1013.8 |
| 20260507084544 | 11 | 0 | 0.0 | 1.6 | 0.00 | 0.66 | 0.00 | 99 | 1013.9 |
| 20260507083044 | 11 | 0 | 0.0 | 4.8 | 0.00 | 0.66 | 0.00 | 99 | 1014.2 |
| 20260507081544 | 11 | 0 | 0.0 | 1.6 | 0.00 | 0.66 | 0.00 | 99 | 1014.3 |
| 20260507080045 | 11 | 0 | 0.0 | 0.0 | 0.00 | 0.66 | 0.00 | 99 | 1013.9 |
| 20260507074601 | 11 | 0 | 0.0 | 3.2 | 0.00 | 0.66 | 0.00 | 99 | 1013.8 |
| 20260507073048 | 11 | 0 | 0.0 | 1.6 | 0.00 | 0.66 | 0.00 | 99 | 1014.0 |
| 20260507071550 | 11 | 0 | 0.0 | 1.6 | 0.00 | 0.66 | 0.00 | 99 | 1014.2 |
| 20260507070105 | 11 | 0 | 0.0 | 0.0 | 0.00 | 0.66 | 0.00 | 99 | 1014.5 |
| 20260507064543 | 11 | 0 | 0.0 | 0.0 | 0.00 | 0.66 | 0.00 | 99 | 1014.2 |
| 20260507063058 | 11 | 0 | 0.0 | 4.8 | 0.00 | 0.66 | 0.00 | 99 | 1014.0 |
| 20260507061549 | 11 | 0 | 0.0 | 3.2 | 0.00 | 0.66 | 0.00 | 99 | 1014.5 |
| 20260507060049 | 11 | 0 | 0.0 | 1.6 | 0.00 | 0.66 | 0.00 | 99 | 1014.0 |
| 20260507054545 | 11 | 0 | 0.0 | 0.0 | 0.00 | 0.66 | 0.00 | 99 | 1014.6 |
| 20260507053049 | 11 | 0 | 0.0 | 0.0 | 0.00 | 0.66 | 0.00 | 99 | 1014.5 |
| 20260507051545 | 11 | 0 | 0.0 | 0.0 | 0.00 | 0.66 | 0.00 | 99 | 1015.5 |
| 20260507050054 | 11 | 0 | 0.0 | 0.0 | 0.00 | 0.66 | 0.00 | 99 | 1015.1 |
| 20260507044551 | 11 | 0 | 0.0 | 0.0 | 0.00 | 0.66 | 0.66 | 99 | 1015.3 |
| 20260507043047 | 11 | 0 | 0.0 | 0.0 | 0.03 | 0.66 | 0.66 | 99 | 1015.2 |
| 20260507041545 | 11 | 0 | 0.0 | 0.0 | 0.03 | 0.66 | 0.66 | 99 | 1015.1 |
| 20260507040048 | 11 | 0 | 0.0 | 0.0 | 0.03 | 0.66 | 0.66 | 99 | 1014.9 |
| 20260507034546 | 11 | 0 | 0.0 | 0.0 | 0.03 | 0.66 | 0.66 | 99 | 1015.1 |
| 20260507033048 | 11 | 0 | 0.0 | 0.0 | 0.00 | 0.64 | 0.64 | 99 | 1014.9 |
| 20260507031546 | 11 | 0 | 0.0 | 0.0 | 0.00 | 0.64 | 0.64 | 99 | 1014.4 |
| 20260507030116 | 12 | 0 | 0.0 | 1.6 | 0.00 | 0.64 | 0.64 | 99 | 1014.2 |
| 20260507024548 | 12 | 0 | 0.0 | 3.2 | 0.00 | 0.64 | 0.64 | 99 | 1014.5 |
| 20260507023046 | 12 | 0 | 0.0 | 0.0 | 0.00 | 0.64 | 0.64 | 99 | 1014.9 |
| 20260507021544 | 12 | 0 | 0.0 | 3.2 | 0.00 | 0.64 | 0.64 | 99 | 1015.0 |
| 20260507020047 | 12 | 0 | 0.0 | 4.8 | 0.00 | 0.64 | 0.64 | 99 | 1015.7 |
| 20260507014553 | 12 | 0 | 0.0 | 3.2 | 0.00 | 0.64 | 0.64 | 99 | 1014.7 |
| 20260507013051 | 12 | 336 | 0.0 | 1.6 | 0.00 | 0.64 | 0.64 | 99 | 1014.6 |
| 20260507011545 | 12 | 0 | 0.0 | 3.2 | 0.00 | 0.64 | 0.64 | 99 | 1013.5 |
| 20260507010055 | 12 | 0 | 0.0 | 3.2 | 0.00 | 0.64 | 0.64 | 99 | 1014.0 |
| 20260507004548 | 12 | 0 | 0.0 | 0.0 | 0.03 | 0.64 | 0.64 | 98 | 1013.7 |
| 20260507003045 | 12 | 0 | 0.0 | 1.6 | 0.03 | 0.64 | 0.64 | 98 | 1013.7 |
| 20260507001550 | 12 | 0 | 0.0 | 1.6 | 0.03 | 0.64 | 0.64 | 98 | 1013.6 |
| 20260507000047 | 12 | 0 | 0.0 | 0.0 | 0.03 | 0.64 | 0.64 | 98 | 1014.6 |
| 20260506234550 | 12 | 0 | 0.0 | 3.2 | 0.00 | 0.61 | 0.61 | 98 | 1014.9 |
| 20260506233104 | 12 | 0 | 0.0 | 0.0 | 0.00 | 0.61 | 0.61 | 98 | 1015.0 |
| 20260506231547 | 12 | 0 | 0.0 | 0.0 | 0.00 | 0.61 | 0.61 | 98 | 1014.4 |
| 20260506224549 | 12 | 306 | 3.2 | 6.4 | 0.00 | 0.61 | 0.61 | 98 | 1013.9 |
| 20260506223047 | 12 | 0 | 0.0 | 4.8 | 0.00 | 0.61 | 0.61 | 97 | 1014.5 |
| 20260506221556 | 12 | 0 | 3.2 | 6.4 | 0.00 | 0.61 | 0.61 | 97 | 1014.3 |
| 20260506220059 | 12 | 0 | 0.0 | 6.4 | 0.00 | 0.61 | 0.61 | 97 | 1013.9 |
| 20260506214551 | 13 | 336 | 1.6 | 8.0 | 0.00 | 0.61 | 0.61 | 97 | 1014.1 |
| 20260506213051 | 13 | 0 | 0.0 | 4.8 | 0.00 | 0.61 | 0.61 | 97 | 1013.2 |
| 20260506211601 | 13 | 315 | 0.0 | 4.8 | 0.00 | 0.61 | 0.61 | 97 | 1013.1 |
| 20260506210047 | 13 | 315 | 1.6 | 4.8 | 0.00 | 0.61 | 0.61 | 97 | 1013.4 |
| 20260506204548 | 13 | 338 | 1.6 | 4.8 | 0.00 | 0.61 | 0.61 | 97 | 1013.0 |
| 20260506203047 | 13 | 0 | 0.0 | 8.0 | 0.00 | 0.61 | 0.61 | 97 | 1013.3 |
| 20260506201545 | 14 | 321 | 1.6 | 4.8 | 0.00 | 0.61 | 0.61 | 97 | 1012.7 |
| 20260506200047 | 15 | 321 | 0.0 | 6.4 | 0.00 | 0.61 | 0.61 | 98 | 1012.9 |
| 20260506194554 | 15 | 324 | 1.6 | 4.8 | 0.00 | 0.61 | 0.61 | 97 | 1013.2 |
| 20260506193048 | 15 | 324 | 1.6 | 8.0 | 0.00 | 0.61 | 0.61 | 98 | 1012.9 |
| 20260506191548 | 16 | 323 | 4.8 | 8.0 | 0.00 | 0.61 | 0.61 | 97 | 1013.5 |
| 20260506190047 | 16 | 298 | 1.6 | 6.4 | 0.00 | 0.61 | 0.61 | 98 | 1013.5 |
| 20260506184556 | 16 | 286 | 1.6 | 6.4 | 0.00 | 0.61 | 0.61 | 97 | 1013.3 |
| 20260506183053 | 16 | 0 | 1.6 | 4.8 | 0.00 | 0.61 | 0.61 | 97 | 1013.1 |
| 20260506181546 | 16 | 0 | 0.0 | 3.2 | 0.00 | 0.61 | 0.61 | 97 | 1012.7 |
| 20260506180047 | 16 | 90 | 0.0 | 0.0 | 0.00 | 0.61 | 0.61 | 98 | 1012.7 |
| 20260506174549 | 16 | 0 | 0.0 | 0.0 | 0.00 | 0.61 | 0.61 | 98 | 1013.1 |
| 20260506173104 | 16 | 325 | 3.2 | 8.0 | 0.00 | 0.61 | 0.61 | 98 | 1013.4 |
| 20260506171552 | 16 | 0 | 0.0 | 8.0 | 0.03 | 0.61 | 0.61 | 98 | 1013.4 |
| 20260506164558 | 16 | 267 | 1.6 | 6.4 | 0.03 | 0.61 | 0.61 | 99 | 1013.1 |
| 20260506163045 | 16 | 318 | 4.8 | 8.0 | 0.03 | 0.61 | 0.61 | 97 | 1013.2 |
| 20260506161548 | 16 | 325 | 4.8 | 11.3 | 0.03 | 0.58 | 0.58 | 97 | 1013.3 |
| 20260506160059 | 17 | 309 | 4.8 | 14.5 | 0.03 | 0.58 | 0.58 | 94 | 1012.9 |
| 20260506154555 | 19 | 226 | 3.2 | 8.0 | 0.03 | 0.58 | 0.58 | 97 | 1012.5 |
| 20260506153047 | 19 | 0 | 3.2 | 8.0 | 0.05 | 0.58 | 0.58 | 98 | 1012.2 |
| 20260506151545 | 18 | 244 | 1.6 | 11.3 | 0.03 | 0.56 | 0.56 | 99 | 1011.9 |
| 20260506150053 | 18 | 228 | 1.6 | 16.1 | 0.05 | 0.56 | 0.56 | 99 | 1011.9 |
| 20260506144547 | 17 | 164 | 6.4 | 12.9 | 0.08 | 0.56 | 0.56 | 99 | 1011.2 |
| 20260506143049 | 17 | 178 | 1.6 | 11.3 | 0.05 | 0.53 | 0.53 | 99 | 1011.4 |
| 20260506141603 | 17 | 163 | 3.2 | 11.3 | 0.05 | 0.53 | 0.53 | 99 | 1011.6 |
| 20260506140048 | 17 | 134 | 4.8 | 11.3 | 0.05 | 0.51 | 0.51 | 99 | 1011.1 |
| 20260506134548 | 17 | 259 | 3.2 | 11.3 | 0.03 | 0.48 | 0.48 | 98 | 1012.5 |
| 20260506133041 | 17 | 234 | 3.2 | 8.0 | 0.05 | 0.48 | 0.48 | 98 | 1012.7 |
| 20260506131547 | 17 | 233 | 4.8 | 8.0 | 0.05 | 0.48 | 0.48 | 98 | 1012.3 |
| 20260506130047 | 17 | 207 | 1.6 | 6.4 | 0.05 | 0.46 | 0.46 | 98 | 1011.6 |
| 20260506124546 | 17 | 0 | 3.2 | 11.3 | 0.08 | 0.46 | 0.46 | 98 | 1011.3 |
| 20260506123046 | 17 | 217 | 4.8 | 11.3 | 0.10 | 0.43 | 0.43 | 98 | 1011.7 |
| 20260506121553 | 17 | 219 | 3.2 | 8.0 | 0.13 | 0.43 | 0.43 | 98 | 1010.8 |